Location: Perryvale
(54.4667°N, 113.3833°W)
Time: 22:50:56
(UTC+00:00)

Vanguard 1 - Pass Details

Date: 27 May 2024
Orbit: 652 x 3825 km, 34.2° (Epoch: 13 June)

Event Time Altitude Azimuth Distance (km) Brightness Sun altitude
Rises 02:43:29 0° 211° (SSW) 4,020 13.3 7.3°
Reaches altitude 10° 02:46:43 10° 194° (SSW) 3,438 12.7 6.9°
Maximum altitude 02:52:54 20° 150° (SSE) 3,406 12.4 6.1°
Drops below altitude 10° 03:01:45 10° 110° (ESE) 5,168 13.1 5.0°
Sets 03:08:19 0° 98° (E) 6,803 13.8 4.2°
